San Jose, Guatemala

3:28 AM CST on April 25, 2017 (GMT -0600)
San Jose

Weather History for MGSJ - January, 2013

Change the Weather History Date:

Friday, January 4, 2013

  Actual Average Record
Temperature  
Mean Temperature 80 °F -  
Max Temperature 91 °F 87 °F 93 °F (2004)
Min Temperature 69 °F 64 °F 62 °F (2005)
Cooling Degree Days 15    
Growing Degree Days 30 (Base 50)    
Moisture  
Dew Point 70 °F    
Average Humidity 75    
Maximum Humidity 100    
Minimum Humidity 33    
Precipitation  
Precipitation 0.00 in - - ()
Sea Level Pressure  
Sea Level Pressure 29.92 in    
Wind  
Wind Speed 2 mph ()    
Max Wind Speed 12 mph    
Max Gust Speed -    
Visibility 5.7 miles    
Events      
Averages and records for this station are not official NWS values.
T = Trace of Precipitation, MM = Missing Value Source: Averaged Metar Reports

Daily Weather History Graph

Daily Weather History Graph

Search for Another Location

Airport or City:

Trip Planner

Search our weather history database for the weather conditions in past years. The results will help you decide how hot, cold, wet, or windy it might be!

Date:

Astronomy

Jan. 04, 2013 Rise Set
Actual Time 6:28 AM CST 5:48 PM CST
Civil Twilight 6:05 AM CST 6:11 PM CST
Nautical Twilight 5:38 AM CST 6:38 PM CST
Astronomical Twilight 5:12 AM CST 7:04 PM CST
Moon No Moon Rise 11:25 AM CST (1/4)
Length of Visible Light 12h 06m
Length of Day
11h 20m
Waning Gibbous, 55% of the Moon is Illuminated
Jan 4
Waning Gibbous
Jan 4
Last Quarter
Jan 11
New
Jan 18
First Quarter
Jan 26
Full

Hourly Weather History & Observations

Time (CST) Temp. Heat Index Dew Point Humidity Pressure Visibility Wind Dir Wind Speed Gust Speed Precip Events Conditions
12:00 AM 73.4 °F - 71.6 °F 94% 29.95 in - Calm Calm - N/A   Clear
1:00 AM 73.4 °F - 71.6 °F 94% 29.92 in - Calm Calm - N/A   Clear
3:00 AM 71.6 °F - 71.6 °F 100% 29.89 in - Calm Calm - N/A   Clear
4:00 AM 71.6 °F - 69.8 °F 94% 29.92 in - Calm Calm - N/A   Clear
5:00 AM 71.6 °F - 69.8 °F 94% 29.92 in - Calm Calm - N/A   Clear
6:00 AM 71.6 °F - 69.8 °F 94% 29.92 in - Calm Calm - N/A   Clear
7:00 AM 71.6 °F - 69.8 °F 94% 29.95 in - Calm Calm - N/A   Clear
8:00 AM 77.0 °F - 73.4 °F 89% 29.98 in - Calm Calm - N/A   Clear
9:00 AM 82.4 °F 87.2 °F 71.6 °F 70% 29.98 in - Calm Calm - N/A   Clear
10:00 AM 87.8 °F 92.6 °F 69.8 °F 55% 29.98 in - WNW 4.6 mph - N/A   Clear
11:00 AM 89.6 °F 92.2 °F 66.2 °F 46% 29.95 in - WSW 4.6 mph - N/A   Clear
12:00 PM 91 °F - 66 °F 33% 29.92 in 6 mi South 11.5 mph - -   Smoke
12:00 PM 91.4 °F 94.0 °F 66.2 °F 43% 29.92 in 5.6 mi South 11.5 mph - N/A   Clear
1:00 PM 91.4 °F 95.4 °F 68.0 °F 46% 29.89 in 5.6 mi South 11.5 mph - N/A   Clear
2:00 PM 89.6 °F 91.1 °F 64.4 °F 43% 29.89 in 5.6 mi South 11.5 mph - N/A   Partly Cloudy
3:00 PM 87.8 °F 91.4 °F 68.0 °F 52% 29.86 in 5.6 mi South 11.5 mph - N/A   Scattered Clouds
4:00 PM 86.0 °F 91.8 °F 71.6 °F 62% 29.86 in 5.6 mi South 9.2 mph - N/A   Scattered Clouds
5:00 PM 84.2 °F 89.6 °F 71.6 °F 66% 29.89 in 5.6 mi South 6.9 mph - N/A   Clear
6:00 PM 82.4 °F 88.2 °F 73.4 °F 74% 29.89 in - Calm Calm - N/A   Clear
7:00 PM 78.8 °F - 73.4 °F 83% 29.89 in - Calm Calm - N/A   Clear
8:00 PM 77.0 °F - 73.4 °F 89% 29.92 in - Calm Calm - N/A   Clear
9:00 PM 75.2 °F - 73.4 °F 94% 29.95 in - Calm Calm - N/A   Clear
10:00 PM 75.2 °F - 73.4 °F 94% 29.95 in - Calm Calm - N/A   Clear
11:00 PM 75.2 °F - 73.4 °F 94% 29.95 in - Calm Calm - N/A   Clear